TimeCDT,TemperatureF,Dew PointF,Humidity,Sea Level PressureIn,VisibilityMPH,Wind Direction,Wind SpeedMPH,Gust SpeedMPH,PrecipitationIn,Events,Conditions,WindDirDegrees,DateUTC
12:56 AM,55.0,48.9,80,29.99,10.0,NNW,8.1,-,N/A,,Clear,330,2012-09-09 05:56:00
1:56 AM,53.1,48.9,86,30.01,10.0,NNW,3.5,-,N/A,,Clear,340,2012-09-09 06:56:00
2:56 AM,51.1,48.9,92,30.02,10.0,WNW,3.5,-,N/A,,Clear,300,2012-09-09 07:56:00
3:56 AM,51.1,48.9,92,30.04,10.0,Calm,Calm,-,N/A,,Clear,0,2012-09-09 08:56:00
4:56 AM,50.0,48.0,93,30.06,10.0,NNW,4.6,-,N/A,,Clear,330,2012-09-09 09:56:00
5:56 AM,50.0,48.0,93,30.09,10.0,NNW,3.5,-,N/A,,Clear,330,2012-09-09 10:56:00
6:56 AM,48.9,46.9,93,30.12,10.0,NW,3.5,-,N/A,,Clear,320,2012-09-09 11:56:00
7:37 AM,51.8,50.0,94,30.12,10.0,NNW,3.5,-,N/A,,Scattered Clouds,330,2012-09-09 12:37:00
7:46 AM,51.8,50.0,94,30.12,10.0,NNW,5.8,-,N/A,,Mostly Cloudy,330,2012-09-09 12:46:00
7:56 AM,52.0,50.0,93,30.14,10.0,NNW,6.9,-,N/A,,Overcast,340,2012-09-09 12:56:00
8:56 AM,54.0,51.1,90,30.16,10.0,NNW,5.8,-,N/A,,Overcast,340,2012-09-09 13:56:00
9:56 AM,55.9,51.1,84,30.17,10.0,NNW,4.6,-,N/A,,Overcast,340,2012-09-09 14:56:00
10:25 AM,57.2,51.8,82,30.16,10.0,North,5.8,-,N/A,,Mostly Cloudy,350,2012-09-09 15:25:00
10:40 AM,59.0,51.8,77,30.17,10.0,Calm,Calm,-,N/A,,Scattered Clouds,0,2012-09-09 15:40:00
10:56 AM,57.9,50.0,75,30.17,10.0,Calm,Calm,-,N/A,,Partly Cloudy,0,2012-09-09 15:56:00
11:56 AM,64.9,50.0,58,30.16,10.0,Variable,5.8,-,N/A,,Clear,0,2012-09-09 16:56:00
12:56 PM,69.1,46.0,44,30.15,10.0,Variable,5.8,-,N/A,,Clear,0,2012-09-09 17:56:00
1:56 PM,70.0,44.1,39,30.14,10.0,North,10.4,-,N/A,,Partly Cloudy,350,2012-09-09 18:56:00
2:56 PM,71.1,45.0,39,30.13,10.0,Variable,4.6,17.3,N/A,,Clear,0,2012-09-09 19:56:00
3:56 PM,72.0,45.0,38,30.12,10.0,Variable,5.8,-,N/A,,Clear,0,2012-09-09 20:56:00
4:56 PM,73.0,43.0,34,30.12,10.0,NNW,5.8,-,N/A,,Clear,330,2012-09-09 21:56:00
5:56 PM,72.0,43.0,35,30.11,10.0,North,6.9,-,N/A,,Clear,360,2012-09-09 22:56:00
6:56 PM,69.1,44.1,40,30.11,10.0,NNE,3.5,-,N/A,,Clear,20,2012-09-09 23:56:00
7:56 PM,61.0,46.9,60,30.11,10.0,Calm,Calm,-,N/A,,Clear,0,2012-09-10 00:56:00
8:56 PM,57.0,46.0,67,30.12,10.0,Calm,Calm,-,N/A,,Clear,0,2012-09-10 01:56:00
9:56 PM,54.0,48.0,80,30.12,10.0,Calm,Calm,-,N/A,,Clear,0,2012-09-10 02:56:00
10:56 PM,51.8,46.4,82,30.12,10.0,Calm,Calm,-,N/A,,Clear,0,2012-09-10 03:56:00
11:56 PM,51.1,46.9,86,30.12,10.0,Calm,Calm,-,N/A,,Clear,0,2012-09-10 04:56:00